Tracking 25689 objects as of 7-Jul-2022
HD Live streaming from Space Station
objects crossing your sky now

FENGYUN 1C DEB

Track FENGYUN 1C DEB now!
10-day predictions


NORAD ID: 30471
Int'l Code: 1999-025AGJ
Perigee: 817.4 km
Apogee: 956.9 km
Inclination: 99.1 °
Period: 102.6 minutes
Semi major axis: 7258 km
RCS: 0.033 m2 (small)
Launch date: May 10, 1999
Source: People's Republic of China (PRC)
Launch site: Taiyaun Space Center, China (TSC)

Note: This is SATELLITE DEBRIS
aabbcc
Your satellite tracking list
Your tracking list is empty




NASA's NSSDC Master Catalog

Two Line Element Set (TLE):
1 30471U 99025AGJ 22188.12474388  .00001603  00000-0  10002-2 0  9993
2 30471  99.1198 251.7343 0096117 158.7641 269.8260 14.03985586788088
Source of the keplerian elements: AFSPC